owner,sensor,date,latitude,longitude,vertical_datum,wind_speed,wind_to_direction,wind_speed_of_gust,qcFlag 
LOOP,urn:ioos:station:wmo:lopl1:1,2012-02-01T00:04:00Z,28.8850,-90.0250,10.0,7.8,143.0,8.7,'11111222,11111222,11111222' 
LOOP,urn:ioos:station:wmo:lopl1:1,2012-02-01T00:19:00Z,28.8850,-90.0250,10.0,7.8,141.0,8.4,'11111222,11111222,11111222' 
LOOP,urn:ioos:station:wmo:lopl1:1,2012-02-01T00:34:00Z,28.8850,-90.0250,10.0,8.1,134.0,8.6,'11111222,11111222,11111222' 
LOOP,urn:ioos:station:wmo:lopl1:1,2012-02-01T00:49:00Z,28.8850,-90.0250,10.0,8.2,138.0,8.7,'11111222,11111222,11111222' 
LOOP,urn:ioos:station:wmo:lopl1:1,2012-02-01T01:04:00Z,28.8850,-90.0250,10.0,8.3,144.0,8.8,'11111222,11111222,11111222' 
LOOP,urn:ioos:station:wmo:lopl1:1,2012-02-01T01:19:00Z,28.8850,-90.0250,10.0,8.4,141.0,9.0,'11111222,11111222,11111222' 
LOOP,urn:ioos:station:wmo:lopl1:1,2012-02-01T01:34:00Z,28.8850,-90.0250,10.0,7.9,139.0,8.5,'11111222,11111222,11111222' 
LOOP,urn:ioos:station:wmo:lopl1:1,2012-02-01T01:49:00Z,28.8850,-90.0250,10.0,8.1,142.0,8.7,'11111222,11111222,11111222' 
LOOP,urn:ioos:station:wmo:lopl1:1,2012-02-01T02:04:00Z,28.8850,-90.0250,10.0,8.4,143.0,8.8,'11111222,11111222,11111222' 
LOOP,urn:ioos:station:wmo:lopl1:1,2012-02-01T02:19:00Z,28.8850,-90.0250,10.0,8.8,145.0,9.5,'11111222,11111222,11111222' 
LOOP,urn:ioos:station:wmo:lopl1:1,2012-02-01T02:34:00Z,28.8850,-90.0250,10.0,8.3,145.0,9.4,'11111222,11111222,11111222' 
LOOP,urn:ioos:station:wmo:lopl1:1,2012-02-01T02:49:00Z,28.8850,-90.0250,10.0,8.4,141.0,9.0,'11111222,11111222,11111222' 
LOOP,urn:ioos:station:wmo:lopl1:1,2012-02-01T03:04:00Z,28.8850,-90.0250,10.0,8.0,142.0,9.0,'11111222,11111222,11111222' 
LOOP,urn:ioos:station:wmo:lopl1:1,2012-02-01T03:19:00Z,28.8850,-90.0250,10.0,8.2,141.0,9.3,'11111222,11111222,11111222' 
LOOP,urn:ioos:station:wmo:lopl1:1,2012-02-01T03:34:00Z,28.8850,-90.0250,10.0,8.4,142.0,9.5,'11111222,11111222,11111222' 
LOOP,urn:ioos:station:wmo:lopl1:1,2012-02-01T03:49:00Z,28.8850,-90.0250,10.0,8.7,143.0,9.6,'11111222,11111222,11111222' 
LOOP,urn:ioos:station:wmo:lopl1:1,2012-02-01T04:04:00Z,28.8850,-90.0250,10.0,9.0,146.0,9.5,'11111222,11111222,11111222' 
LOOP,urn:ioos:station:wmo:lopl1:1,2012-02-01T04:19:00Z,28.8850,-90.0250,10.0,9.3,142.0,9.9,'11111222,11111222,11111222' 
LOOP,urn:ioos:station:wmo:lopl1:1,2012-02-01T04:34:00Z,28.8850,-90.0250,10.0,8.4,143.0,9.4,'11111222,11111222,11111222' 
LOOP,urn:ioos:station:wmo:lopl1:1,2012-02-01T04:49:00Z,28.8850,-90.0250,10.0,8.9,143.0,9.3,'11111222,11111222,11111222' 
LOOP,urn:ioos:station:wmo:lopl1:1,2012-02-01T05:09:00Z,28.8850,-90.0250,10.0,7.5,141.0,8.4,'11111222,11111222,11111222' 
LOOP,urn:ioos:station:wmo:lopl1:1,2012-02-01T05:24:00Z,28.8850,-90.0250,10.0,8.0,139.0,8.6,'11111222,11111222,11111222' 
LOOP,urn:ioos:station:wmo:lopl1:1,2012-02-01T05:39:00Z,28.8850,-90.0250,10.0,9.3,139.0,9.7,'11111222,11111222,11111222' 
LOOP,urn:ioos:station:wmo:lopl1:1,2012-02-01T05:54:00Z,28.8850,-90.0250,10.0,9.8,139.0,10.4,'11111222,11111222,11111222' 
LOOP,urn:ioos:station:wmo:lopl1:1,2012-02-01T06:09:00Z,28.8850,-90.0250,10.0,9.1,142.0,9.9,'11111222,11111222,11111222' 
LOOP,urn:ioos:station:wmo:lopl1:1,2012-02-01T06:24:00Z,28.8850,-90.0250,10.0,8.6,146.0,9.3,'11111222,11111222,11111222' 
LOOP,urn:ioos:station:wmo:lopl1:1,2012-02-01T06:39:00Z,28.8850,-90.0250,10.0,8.2,145.0,9.0,'11111222,11111222,11111222' 
LOOP,urn:ioos:station:wmo:lopl1:1,2012-02-01T06:54:00Z,28.8850,-90.0250,10.0,8.6,140.0,9.7,'11111222,11111222,11111222' 
LOOP,urn:ioos:station:wmo:lopl1:1,2012-02-01T07:09:00Z,28.8850,-90.0250,10.0,8.4,147.0,9.5,'11111222,11111222,11111222' 
LOOP,urn:ioos:station:wmo:lopl1:1,2012-02-01T07:24:00Z,28.8850,-90.0250,10.0,8.8,148.0,9.5,'11111222,11111222,11111222' 
LOOP,urn:ioos:station:wmo:lopl1:1,2012-02-01T07:39:00Z,28.8850,-90.0250,10.0,9.4,147.0,10.1,'11111222,11111222,11111222' 
LOOP,urn:ioos:station:wmo:lopl1:1,2012-02-01T07:54:00Z,28.8850,-90.0250,10.0,9.4,144.0,10.2,'11111222,11111222,11111222' 
LOOP,urn:ioos:station:wmo:lopl1:1,2012-02-01T08:09:00Z,28.8850,-90.0250,10.0,8.9,145.0,9.7,'11111222,11111222,11111222' 
LOOP,urn:ioos:station:wmo:lopl1:1,2012-02-01T08:24:00Z,28.8850,-90.0250,10.0,8.8,151.0,9.4,'11111222,11111222,11111222' 
LOOP,urn:ioos:station:wmo:lopl1:1,2012-02-01T08:39:00Z,28.8850,-90.0250,10.0,7.6,148.0,8.6,'11111222,11111222,11111222' 
LOOP,urn:ioos:station:wmo:lopl1:1,2012-02-01T08:54:00Z,28.8850,-90.0250,10.0,9.6,152.0,9.8,'11111222,11111222,11111222' 
LOOP,urn:ioos:station:wmo:lopl1:1,2012-02-01T09:09:00Z,28.8850,-90.0250,10.0,9.3,153.0,9.7,'11111222,11111222,11111222' 
LOOP,urn:ioos:station:wmo:lopl1:1,2012-02-01T09:24:00Z,28.8850,-90.0250,10.0,8.3,150.0,8.8,'11111222,11111222,11111222' 
LOOP,urn:ioos:station:wmo:lopl1:1,2012-02-01T09:39:00Z,28.8850,-90.0250,10.0,5.9,153.0,6.6,'11111222,11111222,11111222' 
LOOP,urn:ioos:station:wmo:lopl1:1,2012-02-01T09:54:00Z,28.8850,-90.0250,10.0,7.0,158.0,7.6,'11111222,11111222,11111222' 
LOOP,urn:ioos:station:wmo:lopl1:1,2012-02-01T10:09:00Z,28.8850,-90.0250,10.0,7.5,160.0,7.9,'11111222,11111222,11111222' 
LOOP,urn:ioos:station:wmo:lopl1:1,2012-02-01T10:24:00Z,28.8850,-90.0250,10.0,6.8,159.0,7.3,'11111222,11111222,11111222' 
LOOP,urn:ioos:station:wmo:lopl1:1,2012-02-01T10:39:00Z,28.8850,-90.0250,10.0,7.1,159.0,7.4,'11111222,11111222,11111222' 
LOOP,urn:ioos:station:wmo:lopl1:1,2012-02-01T10:54:00Z,28.8850,-90.0250,10.0,7.9,159.0,8.2,'11111222,11111222,11111222' 
LOOP,urn:ioos:station:wmo:lopl1:1,2012-02-01T11:09:00Z,28.8850,-90.0250,10.0,8.4,163.0,8.7,'11111222,11111222,11111222' 
LOOP,urn:ioos:station:wmo:lopl1:1,2012-02-01T11:24:00Z,28.8850,-90.0250,10.0,9.0,156.0,9.3,'11111222,11111222,11111222' 
LOOP,urn:ioos:station:wmo:lopl1:1,2012-02-01T11:39:00Z,28.8850,-90.0250,10.0,8.7,152.0,9.2,'11111222,11111222,11111222' 
LOOP,urn:ioos:station:wmo:lopl1:1,2012-02-01T11:54:00Z,28.8850,-90.0250,10.0,9.5,149.0,9.7,'11111222,11111222,11111222' 
LOOP,urn:ioos:station:wmo:lopl1:1,2012-02-01T12:14:00Z,28.8850,-90.0250,10.0,8.9,152.0,9.1,'11111222,11111222,11111222' 
LOOP,urn:ioos:station:wmo:lopl1:1,2012-02-01T12:29:00Z,28.8850,-90.0250,10.0,7.9,148.0,8.4,'11111222,11111222,11111222' 
LOOP,urn:ioos:station:wmo:lopl1:1,2012-02-01T12:44:00Z,28.8850,-90.0250,10.0,9.3,146.0,9.6,'11111222,11111222,11111222' 
LOOP,urn:ioos:station:wmo:lopl1:1,2012-02-01T12:59:00Z,28.8850,-90.0250,10.0,9.2,149.0,9.6,'11111222,11111222,11111222' 
LOOP,urn:ioos:station:wmo:lopl1:1,2012-02-01T13:14:00Z,28.8850,-90.0250,10.0,8.9,149.0,9.2,'11111222,11111222,11111222' 
LOOP,urn:ioos:station:wmo:lopl1:1,2012-02-01T13:29:00Z,28.8850,-90.0250,10.0,8.8,147.0,9.1,'11111222,11111222,11111222' 
LOOP,urn:ioos:station:wmo:lopl1:1,2012-02-01T13:44:00Z,28.8850,-90.0250,10.0,9.1,153.0,9.4,'11111222,11111222,11111222' 
LOOP,urn:ioos:station:wmo:lopl1:1,2012-02-01T13:59:00Z,28.8850,-90.0250,10.0,8.3,154.0,8.6,'11111222,11111222,11111222' 
LOOP,urn:ioos:station:wmo:lopl1:1,2012-02-01T14:14:00Z,28.8850,-90.0250,10.0,8.3,162.0,8.7,'11111222,11111222,11111222' 
LOOP,urn:ioos:station:wmo:lopl1:1,2012-02-01T14:29:00Z,28.8850,-90.0250,10.0,7.6,159.0,8.1,'11111222,11111222,11111222' 
LOOP,urn:ioos:station:wmo:lopl1:1,2012-02-01T14:44:00Z,28.8850,-90.0250,10.0,6.7,159.0,7.1,'11111222,11111222,11111222' 
LOOP,urn:ioos:station:wmo:lopl1:1,2012-02-01T14:59:00Z,28.8850,-90.0250,10.0,5.9,166.0,6.3,'11111222,11111222,11111222' 
LOOP,urn:ioos:station:wmo:lopl1:1,2012-02-01T15:14:00Z,28.8850,-90.0250,10.0,5.8,179.0,6.4,'11111222,11111222,11111222' 
LOOP,urn:ioos:station:wmo:lopl1:1,2012-02-01T15:29:00Z,28.8850,-90.0250,10.0,5.2,179.0,5.9,'11111222,11111222,11111222' 
LOOP,urn:ioos:station:wmo:lopl1:1,2012-02-01T15:44:00Z,28.8850,-90.0250,10.0,3.1,119.0,5.0,'11111222,11111222,11111222' 
LOOP,urn:ioos:station:wmo:lopl1:1,2012-02-01T15:59:00Z,28.8850,-90.0250,10.0,6.4,122.0,8.0,'11111222,11111222,11111222' 
LOOP,urn:ioos:station:wmo:lopl1:1,2012-02-01T16:14:00Z,28.8850,-90.0250,10.0,5.8,153.0,7.7,'11111222,11111222,11111222' 
LOOP,urn:ioos:station:wmo:lopl1:1,2012-02-01T16:29:00Z,28.8850,-90.0250,10.0,6.5,144.0,8.2,'11111222,11111222,11111222' 
LOOP,urn:ioos:station:wmo:lopl1:1,2012-02-01T16:44:00Z,28.8850,-90.0250,10.0,6.4,137.0,7.8,'11111222,11111222,11111222' 
LOOP,urn:ioos:station:wmo:lopl1:1,2012-02-01T16:59:00Z,28.8850,-90.0250,10.0,6.2,151.0,6.8,'11111222,11111222,11111222' 
LOOP,urn:ioos:station:wmo:lopl1:1,2012-02-01T17:14:00Z,28.8850,-90.0250,10.0,6.5,145.0,7.1,'11111222,11111222,11111222' 
LOOP,urn:ioos:station:wmo:lopl1:1,2012-02-01T17:29:00Z,28.8850,-90.0250,10.0,5.7,151.0,6.5,'11111222,11111222,11111222' 
LOOP,urn:ioos:station:wmo:lopl1:1,2012-02-01T17:44:00Z,28.8850,-90.0250,10.0,5.6,159.0,6.0,'11111222,11111222,11111222' 
LOOP,urn:ioos:station:wmo:lopl1:1,2012-02-01T17:59:00Z,28.8850,-90.0250,10.0,6.4,167.0,6.9,'11111222,11111222,11111222' 
LOOP,urn:ioos:station:wmo:lopl1:1,2012-02-01T18:14:00Z,28.8850,-90.0250,10.0,6.6,168.0,7.0,'11111222,11111222,11111222' 
LOOP,urn:ioos:station:wmo:lopl1:1,2012-02-01T18:29:00Z,28.8850,-90.0250,10.0,7.5,172.0,7.9,'11111222,11111222,11111222' 
LOOP,urn:ioos:station:wmo:lopl1:1,2012-02-01T18:44:00Z,28.8850,-90.0250,10.0,7.8,171.0,8.3,'11111222,11111222,11111222' 
LOOP,urn:ioos:station:wmo:lopl1:1,2012-02-01T18:59:00Z,28.8850,-90.0250,10.0,8.5,176.0,9.0,'11111222,11111222,11111222' 
LOOP,urn:ioos:station:wmo:lopl1:1,2012-02-01T19:14:00Z,28.8850,-90.0250,10.0,7.7,176.0,8.1,'11111222,11111222,11111222' 
LOOP,urn:ioos:station:wmo:lopl1:1,2012-02-01T19:29:00Z,28.8850,-90.0250,10.0,7.8,177.0,8.2,'11111222,11111222,11111222' 
LOOP,urn:ioos:station:wmo:lopl1:1,2012-02-01T19:44:00Z,28.8850,-90.0250,10.0,7.5,183.0,8.0,'11111222,11111222,11111222' 
LOOP,urn:ioos:station:wmo:lopl1:1,2012-02-01T20:04:00Z,28.8850,-90.0250,10.0,6.8,178.0,7.4,'11111222,11111222,11111222' 
LOOP,urn:ioos:station:wmo:lopl1:1,2012-02-01T20:19:00Z,28.8850,-90.0250,10.0,7.4,176.0,7.8,'11111222,11111222,11111222' 
LOOP,urn:ioos:station:wmo:lopl1:1,2012-02-01T20:34:00Z,28.8850,-90.0250,10.0,7.4,174.0,7.9,'11111222,11111222,11111222' 
LOOP,urn:ioos:station:wmo:lopl1:1,2012-02-01T20:49:00Z,28.8850,-90.0250,10.0,7.2,176.0,7.5,'11111222,11111222,11111222' 
LOOP,urn:ioos:station:wmo:lopl1:1,2012-02-01T21:04:00Z,28.8850,-90.0250,10.0,8.1,174.0,8.5,'11111222,11111222,11111222' 
LOOP,urn:ioos:station:wmo:lopl1:1,2012-02-01T21:19:00Z,28.8850,-90.0250,10.0,8.3,174.0,8.8,'11111222,11111222,11111222' 
LOOP,urn:ioos:station:wmo:lopl1:1,2012-02-01T21:34:00Z,28.8850,-90.0250,10.0,8.2,170.0,8.5,'11111222,11111222,11111222' 
LOOP,urn:ioos:station:wmo:lopl1:1,2012-02-01T21:49:00Z,28.8850,-90.0250,10.0,8.0,169.0,8.7,'11111222,11111222,11111222' 
LOOP,urn:ioos:station:wmo:lopl1:1,2012-02-01T22:04:00Z,28.8850,-90.0250,10.0,8.4,167.0,9.1,'11111222,11111222,11111222' 
LOOP,urn:ioos:station:wmo:lopl1:1,2012-02-01T22:19:00Z,28.8850,-90.0250,10.0,6.2,171.0,7.1,'11111222,11111222,11111222' 
LOOP,urn:ioos:station:wmo:lopl1:1,2012-02-01T22:34:00Z,28.8850,-90.0250,10.0,5.9,168.0,6.3,'11111222,11111222,11111222' 
LOOP,urn:ioos:station:wmo:lopl1:1,2012-02-01T22:49:00Z,28.8850,-90.0250,10.0,5.3,173.0,5.7,'11111222,11111222,11111222' 
LOOP,urn:ioos:station:wmo:lopl1:1,2012-02-01T23:04:00Z,28.8850,-90.0250,10.0,5.0,170.0,5.3,'11111222,11111222,11111222' 
LOOP,urn:ioos:station:wmo:lopl1:1,2012-02-01T23:19:00Z,28.8850,-90.0250,10.0,5.5,165.0,5.8,'11111222,11111222,11111222' 
LOOP,urn:ioos:station:wmo:lopl1:1,2012-02-01T23:34:00Z,28.8850,-90.0250,10.0,7.1,160.0,7.5,'11111222,11111222,11111222' 
LOOP,urn:ioos:station:wmo:lopl1:1,2012-02-01T23:49:00Z,28.8850,-90.0250,10.0,6.2,166.0,7.1,'11111222,11111222,11111222' 
LOOP,urn:ioos:station:wmo:lopl1:1,2012-02-02T00:04:00Z,28.8850,-90.0250,10.0,5.9,164.0,6.4,'11111222,11111222,11111222' 
LOOP,urn:ioos:station:wmo:lopl1:1,2012-02-02T00:19:00Z,28.8850,-90.0250,10.0,6.7,159.0,7.4,'11111222,11111222,11111222' 
LOOP,urn:ioos:station:wmo:lopl1:1,2012-02-02T00:34:00Z,28.8850,-90.0250,10.0,7.0,156.0,7.4,'11111222,11111222,11111222' 
LOOP,urn:ioos:station:wmo:lopl1:1,2012-02-02T00:49:00Z,28.8850,-90.0250,10.0,6.6,160.0,6.8,'11111222,11111222,11111222' 
LOOP,urn:ioos:station:wmo:lopl1:1,2012-02-02T01:04:00Z,28.8850,-90.0250,10.0,6.6,162.0,6.8,'11111222,11111222,11111222' 
LOOP,urn:ioos:station:wmo:lopl1:1,2012-02-02T01:19:00Z,28.8850,-90.0250,10.0,7.7,167.0,8.3,'11111222,11111222,11111222' 
LOOP,urn:ioos:station:wmo:lopl1:1,2012-02-02T01:34:00Z,28.8850,-90.0250,10.0,6.8,165.0,7.4,'11111222,11111222,11111222' 
LOOP,urn:ioos:station:wmo:lopl1:1,2012-02-02T01:49:00Z,28.8850,-90.0250,10.0,5.9,153.0,6.1,'11111222,11111222,11111222' 
LOOP,urn:ioos:station:wmo:lopl1:1,2012-02-02T02:04:00Z,28.8850,-90.0250,10.0,6.2,148.0,6.4,'11111222,11111222,11111222' 
LOOP,urn:ioos:station:wmo:lopl1:1,2012-02-02T02:19:00Z,28.8850,-90.0250,10.0,5.7,154.0,6.0,'11111222,11111222,11111222' 
LOOP,urn:ioos:station:wmo:lopl1:1,2012-02-02T02:34:00Z,28.8850,-90.0250,10.0,6.6,158.0,6.8,'11111222,11111222,11111222' 
LOOP,urn:ioos:station:wmo:lopl1:1,2012-02-02T02:49:00Z,28.8850,-90.0250,10.0,6.1,155.0,6.2,'11111222,11111222,11111222' 
LOOP,urn:ioos:station:wmo:lopl1:1,2012-02-02T03:04:00Z,28.8850,-90.0250,10.0,5.7,151.0,5.9,'11111222,11111222,11111222' 
LOOP,urn:ioos:station:wmo:lopl1:1,2012-02-02T03:19:00Z,28.8850,-90.0250,10.0,5.3,145.0,5.9,'11111222,11111222,11111222' 
LOOP,urn:ioos:station:wmo:lopl1:1,2012-02-02T03:34:00Z,28.8850,-90.0250,10.0,5.8,144.0,6.1,'11111222,11111222,11111222' 
LOOP,urn:ioos:station:wmo:lopl1:1,2012-02-02T03:49:00Z,28.8850,-90.0250,10.0,5.9,148.0,6.1,'11111222,11111222,11111222' 
LOOP,urn:ioos:station:wmo:lopl1:1,2012-02-02T04:04:00Z,28.8850,-90.0250,10.0,4.2,138.0,4.6,'11111222,11111222,11111222' 
LOOP,urn:ioos:station:wmo:lopl1:1,2012-02-02T04:19:00Z,28.8850,-90.0250,10.0,3.7,145.0,3.9,'11111222,11111222,11111222' 
LOOP,urn:ioos:station:wmo:lopl1:1,2012-02-02T04:39:00Z,28.8850,-90.0250,10.0,3.7,137.0,3.8,'11111222,11111222,11111222' 
LOOP,urn:ioos:station:wmo:lopl1:1,2012-02-02T04:54:00Z,28.8850,-90.0250,10.0,3.9,137.0,4.1,'11111222,11111222,11111222' 
LOOP,urn:ioos:station:wmo:lopl1:1,2012-02-02T05:09:00Z,28.8850,-90.0250,10.0,4.5,134.0,4.7,'11111222,11111222,11111222' 
LOOP,urn:ioos:station:wmo:lopl1:1,2012-02-02T05:24:00Z,28.8850,-90.0250,10.0,3.8,130.0,3.9,'11111222,11111222,11111222' 
LOOP,urn:ioos:station:wmo:lopl1:1,2012-02-02T05:39:00Z,28.8850,-90.0250,10.0,4.1,139.0,4.2,'11111222,11111222,11111222' 
LOOP,urn:ioos:station:wmo:lopl1:1,2012-02-02T05:54:00Z,28.8850,-90.0250,10.0,4.2,124.0,4.4,'11111222,11111222,11111222' 
LOOP,urn:ioos:station:wmo:lopl1:1,2012-02-02T06:10:00Z,28.8850,-90.0250,10.0,5.2,131.0,5.8,'11111222,11111222,11111222' 
LOOP,urn:ioos:station:wmo:lopl1:1,2012-02-02T06:25:00Z,28.8850,-90.0250,10.0,3.9,105.0,4.6,'11111222,11111222,11111222' 
LOOP,urn:ioos:station:wmo:lopl1:1,2012-02-02T06:40:00Z,28.8850,-90.0250,10.0,5.3,112.0,5.7,'11111222,11111222,11111222' 
LOOP,urn:ioos:station:wmo:lopl1:1,2012-02-02T06:55:00Z,28.8850,-90.0250,10.0,6.0,93.0,6.4,'11111222,11111222,11111222' 
LOOP,urn:ioos:station:wmo:lopl1:1,2012-02-02T07:10:00Z,28.8850,-90.0250,10.0,5.8,96.0,6.4,'11111222,11111222,11111222' 
LOOP,urn:ioos:station:wmo:lopl1:1,2012-02-02T07:25:00Z,28.8850,-90.0250,10.0,6.4,107.0,6.8,'11111222,11111222,11111222' 
LOOP,urn:ioos:station:wmo:lopl1:1,2012-02-02T07:40:00Z,28.8850,-90.0250,10.0,6.1,89.0,6.9,'11111222,11111222,11111222' 
LOOP,urn:ioos:station:wmo:lopl1:1,2012-02-02T07:55:00Z,28.8850,-90.0250,10.0,7.5,104.0,7.9,'11111222,11111222,11111222' 
LOOP,urn:ioos:station:wmo:lopl1:1,2012-02-02T08:10:00Z,28.8850,-90.0250,10.0,7.3,116.0,7.8,'11111222,11111222,11111222' 
LOOP,urn:ioos:station:wmo:lopl1:1,2012-02-02T08:25:00Z,28.8850,-90.0250,10.0,8.2,114.0,8.8,'11111222,11111222,11111222' 
LOOP,urn:ioos:station:wmo:lopl1:1,2012-02-02T08:40:00Z,28.8850,-90.0250,10.0,6.4,108.0,6.9,'11111222,11111222,11111222' 
LOOP,urn:ioos:station:wmo:lopl1:1,2012-02-02T08:55:00Z,28.8850,-90.0250,10.0,5.8,111.0,6.2,'11111222,11111222,11111222' 
LOOP,urn:ioos:station:wmo:lopl1:1,2012-02-02T09:10:00Z,28.8850,-90.0250,10.0,6.2,107.0,6.4,'11111222,11111222,11111222' 
LOOP,urn:ioos:station:wmo:lopl1:1,2012-02-02T09:25:00Z,28.8850,-90.0250,10.0,6.6,124.0,6.8,'11111222,11111222,11111222' 
LOOP,urn:ioos:station:wmo:lopl1:1,2012-02-02T09:40:00Z,28.8850,-90.0250,10.0,5.6,108.0,6.3,'11111222,11111222,11111222' 
LOOP,urn:ioos:station:wmo:lopl1:1,2012-02-02T09:55:00Z,28.8850,-90.0250,10.0,5.1,121.0,5.5,'11111222,11111222,11111222' 
LOOP,urn:ioos:station:wmo:lopl1:1,2012-02-02T10:10:00Z,28.8850,-90.0250,10.0,5.2,119.0,5.4,'11111222,11111222,11111222' 
LOOP,urn:ioos:station:wmo:lopl1:1,2012-02-02T10:25:00Z,28.8850,-90.0250,10.0,4.8,115.0,5.4,'11111222,11111222,11111222' 
LOOP,urn:ioos:station:wmo:lopl1:1,2012-02-02T10:40:00Z,28.8850,-90.0250,10.0,4.1,123.0,4.3,'11111222,11111222,11111222' 
LOOP,urn:ioos:station:wmo:lopl1:1,2012-02-02T10:55:00Z,28.8850,-90.0250,10.0,3.8,103.0,4.2,'11111222,11111222,11111222' 
LOOP,urn:ioos:station:wmo:lopl1:1,2012-02-02T11:15:00Z,28.8850,-90.0250,10.0,4.3,99.0,4.7,'11111222,11111222,11111222' 
LOOP,urn:ioos:station:wmo:lopl1:1,2012-02-02T11:30:00Z,28.8850,-90.0250,10.0,4.6,105.0,4.8,'11111222,11111222,11111222' 
LOOP,urn:ioos:station:wmo:lopl1:1,2012-02-02T11:45:00Z,28.8850,-90.0250,10.0,5.3,106.0,5.7,'11111222,11111222,11111222' 
LOOP,urn:ioos:station:wmo:lopl1:1,2012-02-02T12:00:00Z,28.8850,-90.0250,10.0,5.7,101.0,6.1,'11111222,11111222,11111222' 
LOOP,urn:ioos:station:wmo:lopl1:1,2012-02-02T12:15:00Z,28.8850,-90.0250,10.0,5.9,108.0,6.1,'11111222,11111222,11111222' 
LOOP,urn:ioos:station:wmo:lopl1:1,2012-02-02T12:30:00Z,28.8850,-90.0250,10.0,5.4,112.0,5.7,'11111222,11111222,11111222' 
LOOP,urn:ioos:station:wmo:lopl1:1,2012-02-02T12:45:00Z,28.8850,-90.0250,10.0,5.4,111.0,5.7,'11111222,11111222,11111222' 
LOOP,urn:ioos:station:wmo:lopl1:1,2012-02-02T13:00:00Z,28.8850,-90.0250,10.0,5.8,107.0,6.2,'11111222,11111222,11111222' 
LOOP,urn:ioos:station:wmo:lopl1:1,2012-02-02T13:15:00Z,28.8850,-90.0250,10.0,5.6,109.0,5.9,'11111222,11111222,11111222' 
LOOP,urn:ioos:station:wmo:lopl1:1,2012-02-02T13:30:00Z,28.8850,-90.0250,10.0,5.9,112.0,6.1,'11111222,11111222,11111222' 
LOOP,urn:ioos:station:wmo:lopl1:1,2012-02-02T13:45:00Z,28.8850,-90.0250,10.0,5.6,109.0,5.8,'11111222,11111222,11111222' 
LOOP,urn:ioos:station:wmo:lopl1:1,2012-02-02T14:00:00Z,28.8850,-90.0250,10.0,5.6,104.0,5.8,'11111222,11111222,11111222' 
LOOP,urn:ioos:station:wmo:lopl1:1,2012-02-02T14:15:00Z,28.8850,-90.0250,10.0,5.4,102.0,7.0,'11111222,11111222,11111222' 
LOOP,urn:ioos:station:wmo:lopl1:1,2012-02-02T14:30:00Z,28.8850,-90.0250,10.0,5.4,111.0,5.5,'11111222,11111222,11111222' 
LOOP,urn:ioos:station:wmo:lopl1:1,2012-02-02T14:45:00Z,28.8850,-90.0250,10.0,5.7,118.0,5.8,'11111222,11111222,11111222' 
LOOP,urn:ioos:station:wmo:lopl1:1,2012-02-02T15:00:00Z,28.8850,-90.0250,10.0,6.0,124.0,6.3,'11111222,11111222,11111222' 
LOOP,urn:ioos:station:wmo:lopl1:1,2012-02-02T15:15:00Z,28.8850,-90.0250,10.0,5.6,118.0,5.7,'11111222,11111222,11111222' 
LOOP,urn:ioos:station:wmo:lopl1:1,2012-02-02T15:30:00Z,28.8850,-90.0250,10.0,5.8,126.0,6.0,'11111222,11111222,11111222' 
LOOP,urn:ioos:station:wmo:lopl1:1,2012-02-02T15:45:00Z,28.8850,-90.0250,10.0,5.0,122.0,5.6,'11111222,11111222,11111222' 
LOOP,urn:ioos:station:wmo:lopl1:1,2012-02-02T16:00:00Z,28.8850,-90.0250,10.0,5.2,122.0,5.4,'11111222,11111222,11111222' 
LOOP,urn:ioos:station:wmo:lopl1:1,2012-02-02T16:15:00Z,28.8850,-90.0250,10.0,4.5,124.0,4.7,'11111222,11111222,11111222' 
LOOP,urn:ioos:station:wmo:lopl1:1,2012-02-02T16:30:00Z,28.8850,-90.0250,10.0,4.3,124.0,4.5,'11111222,11111222,11111222' 
LOOP,urn:ioos:station:wmo:lopl1:1,2012-02-02T16:45:00Z,28.8850,-90.0250,10.0,3.5,112.0,3.8,'11111222,11111222,11111222' 
LOOP,urn:ioos:station:wmo:lopl1:1,2012-02-02T17:00:00Z,28.8850,-90.0250,10.0,3.0,104.0,3.1,'11111222,11111222,11111222' 
LOOP,urn:ioos:station:wmo:lopl1:1,2012-02-02T17:15:00Z,28.8850,-90.0250,10.0,3.3,101.0,3.5,'11111222,11111222,11111222' 
LOOP,urn:ioos:station:wmo:lopl1:1,2012-02-02T17:30:00Z,28.8850,-90.0250,10.0,3.3,94.0,3.6,'11111222,11111222,11111222' 
LOOP,urn:ioos:station:wmo:lopl1:1,2012-02-02T17:45:00Z,28.8850,-90.0250,10.0,4.6,104.0,4.8,'11111222,11111222,11111222' 
LOOP,urn:ioos:station:wmo:lopl1:1,2012-02-02T18:00:00Z,28.8850,-90.0250,10.0,4.3,108.0,4.6,'11111222,11111222,11111222' 
LOOP,urn:ioos:station:wmo:lopl1:1,2012-02-02T18:15:00Z,28.8850,-90.0250,10.0,4.3,108.0,4.6,'11111222,11111222,11111222' 
LOOP,urn:ioos:station:wmo:lopl1:1,2012-02-02T18:30:00Z,28.8850,-90.0250,10.0,5.4,99.0,5.6,'11111222,11111222,11111222' 
LOOP,urn:ioos:station:wmo:lopl1:1,2012-02-02T18:45:00Z,28.8850,-90.0250,10.0,5.4,70.0,6.4,'11111222,11111222,11111222' 
LOOP,urn:ioos:station:wmo:lopl1:1,2012-02-02T19:00:00Z,28.8850,-90.0250,10.0,5.7,60.0,6.9,'11111222,11111222,11111222' 
LOOP,urn:ioos:station:wmo:lopl1:1,2012-02-02T19:15:00Z,28.8850,-90.0250,10.0,7.3,66.0,8.1,'11111222,11111222,11111222' 
LOOP,urn:ioos:station:wmo:lopl1:1,2012-02-02T19:30:00Z,28.8850,-90.0250,10.0,6.5,62.0,7.5,'11111222,11111222,11111222' 
LOOP,urn:ioos:station:wmo:lopl1:1,2012-02-02T19:45:00Z,28.8850,-90.0250,10.0,7.2,69.0,7.9,'11111222,11111222,11111222' 
LOOP,urn:ioos:station:wmo:lopl1:1,2012-02-02T20:05:00Z,28.8850,-90.0250,10.0,6.9,69.0,8.1,'11111222,11111222,11111222' 
LOOP,urn:ioos:station:wmo:lopl1:1,2012-02-02T20:20:00Z,28.8850,-90.0250,10.0,7.8,70.0,8.5,'11111222,11111222,11111222' 
LOOP,urn:ioos:station:wmo:lopl1:1,2012-02-02T20:35:00Z,28.8850,-90.0250,10.0,7.4,72.0,9.0,'11111222,11111222,11111222' 
LOOP,urn:ioos:station:wmo:lopl1:1,2012-02-02T20:50:00Z,28.8850,-90.0250,10.0,7.3,72.0,8.9,'11111222,11111222,11111222' 
LOOP,urn:ioos:station:wmo:lopl1:1,2012-02-02T21:05:00Z,28.8850,-90.0250,10.0,7.6,78.0,9.3,'11111222,11111222,11111222' 
LOOP,urn:ioos:station:wmo:lopl1:1,2012-02-02T21:20:00Z,28.8850,-90.0250,10.0,7.0,79.0,8.8,'11111222,11111222,11111222' 
LOOP,urn:ioos:station:wmo:lopl1:1,2012-02-02T21:35:00Z,28.8850,-90.0250,10.0,7.2,73.0,8.8,'11111222,11111222,11111222' 
LOOP,urn:ioos:station:wmo:lopl1:1,2012-02-02T21:50:00Z,28.8850,-90.0250,10.0,7.8,72.0,9.3,'11111222,11111222,11111222' 
LOOP,urn:ioos:station:wmo:lopl1:1,2012-02-02T22:05:00Z,28.8850,-90.0250,10.0,8.5,71.0,10.4,'11111222,11111222,11111222' 
LOOP,urn:ioos:station:wmo:lopl1:1,2012-02-02T22:20:00Z,28.8850,-90.0250,10.0,8.4,70.0,9.8,'11111222,11111222,11111222' 
LOOP,urn:ioos:station:wmo:lopl1:1,2012-02-02T22:35:00Z,28.8850,-90.0250,10.0,8.7,71.0,10.2,'11111222,11111222,11111222' 
LOOP,urn:ioos:station:wmo:lopl1:1,2012-02-02T22:50:00Z,28.8850,-90.0250,10.0,8.5,76.0,9.9,'11111222,11111222,11111222' 
LOOP,urn:ioos:station:wmo:lopl1:1,2012-02-02T23:05:00Z,28.8850,-90.0250,10.0,8.0,70.0,9.4,'11111222,11111222,11111222' 
LOOP,urn:ioos:station:wmo:lopl1:1,2012-02-02T23:20:00Z,28.8850,-90.0250,10.0,8.3,72.0,9.7,'11111222,11111222,11111222' 
LOOP,urn:ioos:station:wmo:lopl1:1,2012-02-02T23:35:00Z,28.8850,-90.0250,10.0,7.9,79.0,9.6,'11111222,11111222,11111222' 
LOOP,urn:ioos:station:wmo:lopl1:1,2012-02-02T23:50:00Z,28.8850,-90.0250,10.0,8.2,78.0,9.9,'11111222,11111222,11111222' 
LOOP,urn:ioos:station:wmo:lopl1:1,2012-02-03T00:05:00Z,28.8850,-90.0250,10.0,8.9,79.0,10.5,'11111222,11111222,11111222' 
LOOP,urn:ioos:station:wmo:lopl1:1,2012-02-03T00:20:00Z,28.8850,-90.0250,10.0,8.6,78.0,10.2,'11111222,11111222,11111222' 
LOOP,urn:ioos:station:wmo:lopl1:1,2012-02-03T00:35:00Z,28.8850,-90.0250,10.0,9.1,80.0,10.5,'11111222,11111222,11111222' 
LOOP,urn:ioos:station:wmo:lopl1:1,2012-02-03T00:50:00Z,28.8850,-90.0250,10.0,9.4,83.0,10.7,'11111222,11111222,11111222' 
LOOP,urn:ioos:station:wmo:lopl1:1,2012-02-03T01:05:00Z,28.8850,-90.0250,10.0,9.0,82.0,10.5,'11111222,11111222,11111222' 
LOOP,urn:ioos:station:wmo:lopl1:1,2012-02-03T01:20:00Z,28.8850,-90.0250,10.0,9.8,86.0,11.6,'11111222,11111222,11111222' 
LOOP,urn:ioos:station:wmo:lopl1:1,2012-02-03T01:35:00Z,28.8850,-90.0250,10.0,9.8,88.0,11.1,'11111222,11111222,11111222' 